This is the latest recevied weather packets stored in our database for station/object KG4AGD. If no packets are shown the sender has not sent any weather packets the latest 1 day(s).
| Time | Temp. | Humidity | Pressure | Rain* | Wind** | Luminosity | Snow |
|---|---|---|---|---|---|---|---|
| 1777995714 | 24.44° C | 58% | 1018.9 hPa | 0 mm | 2.68 m/s, 209° | - | - |
| 1777995412 | 24.44° C | 58% | 1018.9 hPa | 0 mm | 3.13 m/s, 188° | - | - |
| 1777995110 | 24.44° C | 59% | 1018.9 hPa | 0 mm | 1.34 m/s, 153° | - | - |
| 1777994808 | 24.44° C | 61% | 1018.9 hPa | 0 mm | 2.68 m/s, 146° | - | - |
| 1777994505 | 24.44° C | 58% | 1018.9 hPa | 0 mm | 3.13 m/s, 175° | - | - |
| 1777994203 | 24.44° C | 60% | 1019.3 hPa | 0 mm | 2.24 m/s, 201° | - | - |
| 1777993901 | 23.89° C | 62% | 1019.3 hPa | 0 mm | 4.47 m/s, 181° | - | - |
| 1777993598 | 23.89° C | 62% | 1019.3 hPa | 0 mm | 3.13 m/s, 181° | - | - |
| 1777993296 | 24.44° C | 64% | 1018.9 hPa | 0 mm | 1.79 m/s, 166° | - | - |
| 1777992994 | 23.33° C | 63% | 1018.9 hPa | 0 mm | 3.58 m/s, 242° | - | - |
| 1777992692 | 22.78° C | 65% | 1019.3 hPa | 0 mm | 3.13 m/s, 206° | - | - |
| 1777992390 | 23.33° C | 65% | 1018.9 hPa | 0 mm | 2.68 m/s, 239° | - | - |
| 1777992088 | 22.78° C | 66% | 1018.9 hPa | 0 mm | 0.89 m/s, 296° | - | - |
| 1777991785 | 22.22° C | 66% | 1018.9 hPa | 0 mm | 4.92 m/s, 174° | - | - |
| 1777991483 | 22.22° C | 68% | 1018.9 hPa | 0 mm | 3.58 m/s, 206° | - | - |
| 1777991180 | 22.22° C | 68% | 1018.9 hPa | 0 mm | 2.24 m/s, 202° | - | - |
| 1777990878 | 22.22° C | 67% | 1018.9 hPa | 0 mm | 2.68 m/s, 227° | - | - |
| 1777990576 | 21.67° C | 68% | 1018.9 hPa | 0 mm | 3.58 m/s, 200° | - | - |
| 1777990274 | 21.67° C | 69% | 1019.3 hPa | 0 mm | 3.58 m/s, 216° | - | - |
| 1777989971 | 21.67° C | 71% | 1019.3 hPa | 0 mm | 3.58 m/s, 166° | - | - |
| 1777989669 | 21.67° C | 69% | 1019.3 hPa | 0 mm | 3.13 m/s, 205° | - | - |
| 1777989367 | 21.67° C | 69% | 1019.3 hPa | 0 mm | 2.68 m/s, 202° | - | - |
| 1777989064 | 21.67° C | 70% | 1019.3 hPa | 0 mm | 2.24 m/s, 190° | - | - |
| 1777988762 | 20.56° C | 72% | 1018.9 hPa | 0 mm | 1.79 m/s, 282° | - | - |
| 1777988460 | 21.11° C | 72% | 1018.9 hPa | 0 mm | 2.68 m/s, 182° | - | - |
* Rain since midnight (hover to see other rain measurements)
** Current wind speed in m/s (hover to see current wind gust speed)